Погода в Андреевке

Украина / Днепропетровская область     48°46′00″N   35°27′13″E
В апреле 2022 года жителям России запретили посещать сайт meteo.paraplan.net по решению Генеральной прокуратуры. Аудитория сайта уменьшилась в 10 раз. Владельцы сайта не видят смысла в поддержке погодного сервера в таких условиях. Сайт будет закрыт в октябре.
темп.,
°C
ветер,
м/с
пор.,
м/с
влажн.,
%
обл.,
%
осадки,
мм/ч
давл.,
гПа
погр.,
м
3 октября, пн
пн300:00+12з71280100 0.1 10001177
03:00+10з81377100 0.3 10021323
06:00+10зюз81575100 0.1 10031336
09:00+11зюз8127498 0.3 1005986
12:00+15зюз81152100 0.1 10061863
15:00+15юз71148100 0.2 10082251
18:00+13юз510545 0.0 1009305
21:00+12ююз5116464 0.1 1010316
4 октября, вт
вт400:00+13юз51064100 0.1 1010658
03:00+12ю512705 0.1 1010545
06:00+9ююз410855 0.0 1011276
09:00+12юз59655 0.0 1012703
12:00+16юз7104942 0.0 10131758
15:00+15зюз695299 0.0 10141419
18:00+14зюз4752100 0.0 1015390
21:00+11з386498 0.0 1017285
5 октября, ср
ср500:00+9зюз41072100 0.0 1018309
03:00+9зюз397449 0.0 1019268
06:00+8зюз38825 0.0 1020169
09:00+11з57735 0.0 1021473
12:00+15з675780 0.1 10211366
15:00+14зсз795631 0.4 10221403
18:00+11зсз5968100 0.0 1024942
21:00+10з3873100 0.0 1025316
6 октября, чт
чт600:00+8зсз3582100 0.0 1025121
03:00+8зсз2386100 0.0 102653
06:00+8з2382100 0.0 102673
09:00+11зюз347285 0.0 1026277
12:00+16зюз4550100 0.0 1026863
15:00+18з56415 0.0 10241238
18:00+15з335493 0.0 102428
21:00+15зюз355499 0.0 1025106
7 октября, пт
пт700:00+13зюз3463100 0.0 102565
03:00+11зюз3367100 0.0 102552
06:00+10зсз238048 0.0 102532
09:00+13ссз347447 0.0 1025269
12:00+18с456125 0.0 1025928
15:00+20с55475 0.0 10241448
18:00+16с35525 0.0 102578
21:00+12ссв47632 0.0 1026110